User: anonymous   Login
Location: Caltech
(34.1382°N, 118.1253°W)
Time: 09:45:15
(UTC-08:00)
Language:

Oscar 11 - Orbit

View from above orbital plane
View from above orbital plane
View from above satellite
View from above satellite

Ground track
Ground track

The orbit data is extracted from the following two-line orbital elements,

1 14781U 84021B   16040.40710237  .00000492  00000-0  67357-4 0  9998
2 14781  97.7685  96.2311 0009017  25.2677 334.8976 14.82663633717178
Epoch (UTC): 09 February 2016 09:46:13
Eccentricity: 0.0009017
inclination: 97.7685°
perigee height: 614 km
apogee height: 627 km
right ascension of ascending node: 96.2311°
argument of perigee: 25.2677°
revolutions per day: 14.82663633
mean anomaly at epoch: 334.8976°
orbit number at epoch: 71717

The dashed part of the orbit path shows where the satellite is in the earth's shadow,  

DLR